[[{"header":{"parameterUnit":"m.s-1","parameterCategory":1,"la1":30.2991,"la2":30.254,"lo1":-89.0895,"lo2":-89.0444,"dy":0.0017,"dx":0.0017,"nx":28,"ny":28,"refTime":"2023-09-05T21:00:00:Z","depth":0,"parameterNumber":2,"parameterNumberName":"U-component_of_WINDS"},"data":[0,0,0,0,0,0,0,0,0,0,0,0,0,0,0,0,0,0,0,0,0,0,0,0,0,0,0,0,0,0,0,0,0,0,0,0,0,0,0,0,0,0,0,0,0,0,0,0,0,0,0,0,0,0,0,0,0,0,-4.0418,-4.0419,0,-4.0474,-4.0475,-4.0475,-4.0414,-4.0411,-4.0409,-4.0407,-4.0464,-4.0467,-4.0471,0,0,0,0,0,0,0,0,0,0,0,0,0,-4.0259,-4.0263,-4.0418,-4.0419,-4.0419,-4.0474,-4.0475,-4.0476,-4.0414,-4.0411,-4.0408,-4.0406,-4.0463,-4.0467,-4.0471,0,0,0,0,0,0,0,0,0,0,0,0,0,-4.0323,-4.0264,-4.0418,-4.0395,-4.0394,-4.0474,-4.0475,-4.0476,-4.0415,-4.0411,-4.0408,-4.0404,-4.0461,-4.0467,-4.0472,-4.0577,0,0,-4.0489,-4.0491,0,0,0,0,0,0,0,0,-4.032,-4.0329,-4.0398,-4.0397,-4.0396,-4.0433,-4.044,-4.051,-4.0416,-4.0407,-4.0407,-4.0403,-4.0457,-4.0462,-4.048,-4.0579,-4.0582,-4.0489,-4.0493,-4.0495,-4.0497,0,0,0,0,0,0,0,-4.0315,-4.0326,-4.044,-4.0399,-4.0398,-4.0383,-4.0388,-4.0453,-4.0451,-4.0407,-4.0403,-4.041,-4.0455,-4.0475,-4.0481,-4.0583,-4.0489,-4.0494,-4.0498,-4.05,-4.0773,-4.0777,0,0,0,0,0,0,-4.0313,-4.0323,-4.0438,-4.0442,-4.0348,-4.0389,-4.0394,-4.0425,-4.045,-4.045,-4.0413,-4.0407,-4.0467,-4.0475,-4.0483,-4.0609,-4.0495,-4.05,-4.0504,-4.0769,-4.0774,-4.0778,0,0,0,0,0,0,-4.031,-4.0324,-4.0436,-4.0381,-4.0394,-4.0395,-4.043,-4.0428,-4.0448,-4.0454,-4.0454,-4.0434,-4.0465,-4.0475,-4.0555,-4.061,-4.0503,-4.0508,-4.0765,-4.0771,-4.0776,-4.086,0,0,0,0,0,0,-4.0306,-4.0323,-4.0363,-4.0383,-4.0398,-4.0506,-4.0433,-4.0431,-4.0457,-4.045,-4.0474,-4.0474,-4.0463,-4.0547,-4.056,-4.0615,-4.0512,-4.076,-4.0767,-4.0774,-4.0852,-4.0868,-4.0881,0,0,0,0,0,-4.03,-4.0383,-4.0365,-4.0379,-4.0447,-4.0509,-4.0518,-4.0503,-4.0462,-4.0502,-4.0507,-4.0473,-4.0602,-4.0555,-4.057,-4.0628,-4.0756,-4.0765,-4.0774,-4.0846,-4.0865,-4.0881,0,0,0,0,0,0,-4.0368,-4.0385,-4.0365,-4.0457,-4.0482,-4.0499,-4.0548,-4.0524,-4.0561,-4.0553,-4.0533,-4.0539,-4.0624,-4.0634,-4.0581,-4.0732,-4.0672,-4.0685,-4.0722,-4.074,-4.0755,-4.075,-4.0517,0,0,0,0,0,-4.0394,-4.0444,-4.0456,-4.0536,-4.055,-4.0547,-4.0574,-4.0561,-4.0587,-4.0597,-4.0607,-4.0634,-4.068,-4.0711,-4.0754,-4.0854,-4.0859,-4.0901,-4.0916,-4.0928,-4.0938,-4.0994,-4.1014,-4.0807,-4.0807,-4.0807,0,0,-4.0447,-4.0463,-4.0495,-4.055,-4.0568,-4.0621,-4.0557,-4.0614,-4.0653,-4.0605,-4.0681,-4.0691,-4.0719,-4.081,-4.085,-4.082,-4.0997,-4.0939,-4.0949,-4.0953,-4.1005,-4.1025,-4.1042,-4.0813,-4.0812,-4.0811,0,0,-4.0571,-4.0588,-4.0657,-4.0678,-4.0707,-4.0705,-4.0722,-4.0743,-4.0748,-4.0824,-4.079,-4.0837,-4.0916,-4.0938,-4.096,-4.1097,-4.1068,-4.1112,-4.1187,-4.1242,-4.1259,-4.1273,-4.1323,-4.1341,-4.1122,-4.1123,-4.1123,0,-4.0634,-4.0711,-4.0696,-4.0757,-4.0782,-4.0743,-4.0814,-4.0835,-4.0876,-4.0895,-4.0862,-4.0963,-4.0979,-4.1076,-4.1109,-4.1128,-4.1148,-4.1108,-4.1257,-4.1272,-4.1285,-4.1332,-4.1351,-4.1128,-4.1127,-4.1127,-4.1126,0,-4.0787,-4.0842,-4.0894,-4.0937,-4.0969,-4.1034,-4.1029,-4.1064,-4.1049,-4.1052,-4.1131,-4.115,-4.1197,-4.1219,-4.1204,-4.1314,-4.1295,-4.126,-4.12,-4.131,-4.1354,-4.1372,-4.1135,-4.1133,-4.1132,-4.113,0,0,-4.0952,-4.0988,-4.1008,-4.1028,-4.1059,-4.1101,-4.1166,-4.1212,-4.1243,-4.1274,-4.1328,-4.1399,-4.1367,-4.1392,-4.1381,-4.1429,-4.1538,-4.1388,-4.1388,-4.1416,-4.1662,-4.1688,-4.1709,-4.152,-4.1523,-4.1526,-4.166,0,-4.1078,-4.119,-4.1179,-4.1286,-4.1338,-4.1303,-4.136,-4.1386,-4.1391,-4.1436,-4.1441,-4.1492,-4.1446,-4.1461,-4.1507,-4.1515,-4.1587,-4.1505,-4.1571,-4.1573,-4.1564,-4.1732,-4.1759,-4.1884,-4.1677,-4.168,-4.1682,0,-4.1237,-4.1276,-4.1388,-4.1414,-4.1435,-4.1486,-4.153,-4.1573,-4.1603,-4.1603,-4.1633,-4.1614,-4.168,-4.162,-4.1713,-4.1657,-4.1684,-4.1692,-4.1697,-4.1702,-4.1634,-4.1742,-4.1924,-4.1943,-4.1709,-4.1707,-4.1705,0,-4.1348,-4.1427,-4.1505,-4.1524,-4.1555,-4.1593,-4.1608,-4.1634,-4.1664,-4.1702,-4.1722,-4.1767,-4.1792,-4.1829,-4.1823,-4.178,-4.1918,-4.1857,-4.1921,-4.1922,-4.1951,-4.1949,-4.214,-4.1969,-4.1969,-4.1968,-4.1968,0,-4.1488,-4.1558,-4.1556,-4.1604,-4.1682,-4.1671,-4.1749,-4.176,-4.1784,-4.1834,-4.1808,-4.1855,-4.1845,-4.1894,-4.189,-4.1968,-4.198,-4.1982,-4.1981,-4.1985,-4.1984,-4.2001,-4.1992,-4.1973,-4.1972,-4.1971,-4.197,0,-4.1623,-4.1624,-4.1707,-4.1732,-4.174,-4.1797,-4.1818,-4.1864,-4.1869,-4.1933,-4.1947,-4.1954,-4.2009,-4.2008,-4.2071,-4.2069,-4.2165,-4.2153,-4.2155,-4.2153,-4.2217,-4.2211,-4.2425,-4.2453,-4.2264,-4.2266,-4.2268,0,-4.1712,-4.1766,-4.1797,-4.183,-4.1847,-4.1899,-4.193,-4.1922,-4.1956,-4.1996,-4.2037,-4.2091,-4.2133,-4.2224,-4.2235,-4.2283,-4.2273,-4.2344,-4.2279,-4.2283,-4.2274,-4.2271,-4.2277,-4.2357,-4.2359,-4.236,-4.2362,0,-4.1871,-4.187,-4.1915,-4.1963,-4.2001,-4.2037,-4.2071,-4.2099,-4.2095,-4.2134,-4.2191,-4.2224,-4.229,-4.2344,-4.2392,-4.2408,-4.2385,-4.2383,-4.24,-4.2405,-4.2404,-4.2406,-4.219,-4.2377,-4.2376,-4.2375,-4.2374,-4.2373,-4.1986,-4.2033,-4.2063,-4.2116,-4.2141,-4.2174,-4.2219,-4.223,-4.2277,-4.2331,-4.2323,-4.2388,-4.2419,-4.2481,-4.2502,-4.2553,-4.2527,-4.2552,-4.2559,-4.2565,-4.2573,-4.2397,-4.2561,-4.2561,-4.256,-4.256,-4.256,0,-4.2143,-4.2162,-4.2211,-4.226,-4.2302,-4.2278,-4.2315,-4.2352,-4.2409,-4.244,-4.2483,-4.255,-4.2603,-4.262,-4.2672,-4.2709,-4.27,-4.2723,-4.272,-4.2725,-4.2592,-4.2572,-4.273,-4.273,-4.273,-4.273,-4.273,-4.273,-4.223,-4.2309,-4.2312,-4.2404,-4.2422,-4.2485,-4.2509,-4.254,-4.2565,-4.2641,-4.2685,-4.2696,-4.2722,-4.2776,-4.2825,-4.2828,-4.2849,-4.2876,-4.2876,-4.2751,-4.2734,-4.2717,-4.2698,-4.2881,-4.2881,-4.3004,-4.3005,-4.3006]},{"header":{"parameterUnit":"m.s-1","parameterCategory":1,"la1":30.2991,"la2":30.254,"lo1":-89.0895,"lo2":-89.0444,"dy":0.0017,"dx":0.0017,"nx":28,"ny":28,"refTime":"2023-09-05T21:00:00:Z","depth":0,"parameterNumber":3,"parameterNumberName":"V-component_of_WINDS"},"data":[0,0,0,0,0,0,0,0,0,0,0,0,0,0,0,0,0,0,0,0,0,0,0,0,0,0,0,0,0,0,0,0,0,0,0,0,0,0,0,0,0,0,0,0,0,0,0,0,0,0,0,0,0,0,0,0,0,0,0.903,0.9032,0,0.9224,0.9227,0.9229,0.9407,0.9409,0.9411,0.9414,0.9606,0.9609,0.9612,0,0,0,0,0,0,0,0,0,0,0,0,0,0.8807,0.881,0.903,0.9032,0.9035,0.9224,0.9227,0.9229,0.9407,0.9409,0.9412,0.9415,0.9605,0.9609,0.9613,0,0,0,0,0,0,0,0,0,0,0,0,0,0.8942,0.8811,0.9029,0.9146,0.9159,0.9224,0.9227,0.923,0.9406,0.9409,0.9413,0.9416,0.9604,0.9609,0.9613,0.9576,0,0,0.9627,0.9629,0,0,0,0,0,0,0,0,0.8934,0.895,0.9126,0.9138,0.9152,0.9295,0.9219,0.9346,0.9405,0.9312,0.9414,0.9417,0.95,0.9513,0.9542,0.9585,0.9594,0.9628,0.9631,0.9633,0.9634,0,0,0,0,0,0,0,0.8925,0.8943,0.9107,0.9129,0.9144,0.9187,0.921,0.9244,0.9385,0.932,0.9334,0.9355,0.9507,0.9537,0.9548,0.9597,0.9628,0.9632,0.9635,0.9637,0.9619,0.9616,0,0,0,0,0,0,0.8898,0.8934,0.91,0.9112,0.9049,0.9188,0.9214,0.9246,0.9385,0.941,0.9352,0.9362,0.9528,0.9542,0.9555,0.9521,0.9633,0.9637,0.964,0.9622,0.9618,0.9615,0,0,0,0,0,0,0.8893,0.8911,0.9093,0.9027,0.9053,0.9189,0.9223,0.9248,0.9278,0.9409,0.9434,0.9357,0.9531,0.9549,0.957,0.953,0.9639,0.9643,0.9626,0.9621,0.9617,0.9451,0,0,0,0,0,0,0.8885,0.8908,0.8897,0.9025,0.9056,0.9105,0.9221,0.9249,0.9286,0.9302,0.942,0.9443,0.9535,0.9562,0.9575,0.9538,0.9647,0.963,0.9624,0.9618,0.9461,0.9441,0.9425,0,0,0,0,0,0.8877,0.8841,0.8895,0.8914,0.9045,0.9102,0.912,0.9228,0.9282,0.9271,0.9355,0.9439,0.9533,0.9563,0.9579,0.9543,0.9633,0.9626,0.9619,0.9469,0.9445,0.9425,0,0,0,0,0,0,0.8702,0.886,0.8922,0.8927,0.9,0.9132,0.9121,0.9199,0.9257,0.9269,0.9399,0.9424,0.943,0.949,0.952,0.9515,0.9595,0.959,0.9475,0.9454,0.9436,0.942,0.9651,0,0,0,0,0,0.8664,0.8699,0.8835,0.8827,0.8861,0.8984,0.9013,0.9091,0.9171,0.9202,0.9288,0.936,0.9407,0.9434,0.9484,0.9471,0.9499,0.9454,0.9436,0.9421,0.9414,0.9411,0.9392,0.9591,0.9591,0.9591,0,0,0.8585,0.8677,0.869,0.8794,0.886,0.8891,0.9009,0.9037,0.9062,0.9206,0.9231,0.9297,0.9387,0.939,0.9396,0.944,0.9366,0.9411,0.9398,0.94,0.9401,0.9382,0.9366,0.9586,0.9587,0.9587,0,0,0.8459,0.8532,0.8533,0.8597,0.8696,0.8779,0.8778,0.89,0.8949,0.8978,0.9086,0.9117,0.9193,0.9253,0.9293,0.919,0.9269,0.9203,0.9107,0.9102,0.9086,0.9073,0.9035,0.9019,0.9197,0.9196,0.9196,0,0.8348,0.8402,0.8522,0.8545,0.8586,0.8721,0.8722,0.8777,0.8886,0.8911,0.8959,0.9059,0.9129,0.9148,0.9123,0.9152,0.9154,0.9188,0.9079,0.9067,0.9057,0.9021,0.9007,0.9187,0.9188,0.9189,0.919,0,0.826,0.8296,0.8285,0.8389,0.8429,0.844,0.856,0.8587,0.8661,0.8738,0.8764,0.8854,0.8924,0.8935,0.9007,0.8964,0.8988,0.9056,0.9138,0.9027,0.8996,0.8983,0.9175,0.9178,0.918,0.9183,0,0,0.8026,0.8198,0.8191,0.824,0.836,0.8389,0.8406,0.8477,0.8496,0.8567,0.8583,0.8646,0.871,0.8755,0.8836,0.8832,0.8743,0.8901,0.8905,0.8866,0.8699,0.8645,0.8628,0.8797,0.8795,0.8793,0.8691,0,0.7917,0.7957,0.8066,0.8072,0.8105,0.8235,0.825,0.8323,0.8396,0.8434,0.8515,0.8556,0.8639,0.8667,0.8669,0.8753,0.871,0.8762,0.881,0.8811,0.8781,0.8612,0.8555,0.8454,0.868,0.8678,0.8676,0,0.7795,0.786,0.7869,0.7988,0.8006,0.8017,0.8091,0.8127,0.8213,0.8266,0.8317,0.8407,0.8431,0.8509,0.8542,0.8575,0.8601,0.8645,0.8644,0.865,0.8734,0.8611,0.8425,0.8408,0.8659,0.866,0.8661,0,0.762,0.771,0.7727,0.7765,0.7905,0.7909,0.7967,0.8058,0.8093,0.8157,0.8181,0.8246,0.828,0.8328,0.8432,0.848,0.8453,0.854,0.8495,0.8492,0.8481,0.848,0.8294,0.8502,0.8502,0.8503,0.8503,0,0.7485,0.7485,0.765,0.766,0.7664,0.7789,0.7789,0.7859,0.7938,0.7963,0.8079,0.8099,0.8238,0.8273,0.8355,0.8369,0.8384,0.8426,0.8447,0.8414,0.8408,0.8431,0.844,0.8499,0.85,0.85,0.8501,0,0.7289,0.74,0.7427,0.7558,0.7591,0.7587,0.7699,0.7713,0.7794,0.7824,0.7838,0.7964,0.8012,0.8122,0.8199,0.8254,0.8246,0.8287,0.8217,0.823,0.8178,0.818,0.7998,0.798,0.8201,0.8199,0.8197,0,0.7194,0.7198,0.733,0.7356,0.741,0.745,0.7488,0.7612,0.7645,0.7745,0.7746,0.7804,0.7857,0.7928,0.8025,0.8084,0.8126,0.8058,0.8135,0.8101,0.8122,0.8119,0.8119,0.8039,0.8036,0.8034,0.8032,0,0.7014,0.7069,0.712,0.7189,0.7232,0.7292,0.7359,0.7373,0.7512,0.7544,0.7597,0.7637,0.7718,0.7773,0.7848,0.7906,0.799,0.8007,0.8,0.7964,0.7923,0.7943,0.8167,0.801,0.8012,0.8014,0.8015,0.8016,0.6865,0.6873,0.6968,0.702,0.7084,0.7144,0.7163,0.7248,0.7294,0.737,0.7441,0.7485,0.7572,0.7682,0.7734,0.777,0.7813,0.7802,0.7799,0.7794,0.7779,0.792,0.7784,0.7785,0.7786,0.7786,0.7787,0,0.6688,0.6756,0.6803,0.6894,0.6935,0.7015,0.7093,0.7121,0.716,0.7235,0.7285,0.7344,0.7399,0.7501,0.7565,0.7573,0.7614,0.7585,0.7585,0.7596,0.7738,0.7737,0.7552,0.7552,0.7552,0.7552,0.7552,0.7552,0.6601,0.662,0.6686,0.6737,0.6806,0.6852,0.6889,0.6945,0.7005,0.7067,0.7114,0.7181,0.7267,0.7338,0.7391,0.742,0.7436,0.7395,0.7435,0.7564,0.7586,0.7607,0.7607,0.7398,0.7398,0.7291,0.729,0.7289]}]]